Regional Weather Roundup
Issued by NWS

Home | Current Version | Previous Version | Text Only | Print | Product List | Glossary On
Versions: 1 2 3 4 5 6 7 8 9 10 11 12 13 14 15 16 17 18 19 20 21 22 23 24 25 26 27 28 29 30 31 32 33 34 35 36 37 38 39 40 41 42 43 44 45 46 47 48 49 50
000
ASUS43 KLSX 300459
RWRMO

WEATHER SUMMARY FOR MISSOURI
NATIONAL WEATHER SERVICE SPRINGFIELD MO
1200 AM CDT TUE JUN 30 2015

NOTE: "FAIR" INDICATES FEW OR NO CLOUDS BELOW 12,000 FEET WITH NO
       SIGNIFICANT WEATHER AND/OR OBSTRUCTIONS TO VISIBILITY.
       CURRENT SKY AND/OR WEATHER CONDITIONS ARE NOT AVAILABLE FOR
       CHILLICOTHE AND FARMINGTON.

MOZ001>031-035>038-043-044-053-054-300600-
...NORTHERN AND WESTERN MISSOURI...

CITY           SKY/WX    TMP DP  RH WIND       PRES   REMARKS
KANSAS CTY INT MOCLDY    76  63  64 NW5       29.93S
KANSAS C DTWN  CLEAR     75  68  78 CALM      29.92R
LEE`S SUMMIT   PTCLDY    73  64  73 SW3       29.94R
ST JOSEPH      PTCLDY    71  67  87 CALM      29.92S
CHILLICOTHE      N/A     69  67  93 CALM      29.92S
KIRKSVILLE     CLEAR     66  64  93 W5        29.91R

$$
MOZ066>068-077>081-088>096-101>105-300600-
...SOUTHWEST MISSOURI...

CITY           SKY/WX    TMP DP  RH WIND       PRES   REMARKS
SPRINGFIELD    CLEAR     70  65  84 SW7       29.97R
JOPLIN         CLEAR     71  65  81 S5        29.97S

$$
MOZ032>034-039>042-045>050-055>058-069>072-300600-
...CENTRAL MISSOURI...

CITY           SKY/WX    TMP DP  RH WIND       PRES   REMARKS
COLUMBIA       CLEAR     73  67  81 W6        29.91R
JEFFERSON CITY CLEAR     72  68  87 CALM      29.89R
ROLLA          CLEAR     69  66  90 SW9       29.91S
SEDALIA        CLEAR     74  65  73 W3        29.94R
OSAGE BEACH    CLEAR     72  66  83 W5        29.92S

$$
MOZ051-052-059>065-300600-
...EAST CENTRAL MISSOURI...

CITY           SKY/WX    TMP DP  RH WIND       PRES   REMARKS
ST LOUIS INTL  PTCLDY    74  68  81 SW3       29.88S
SPIRIT OF STL  CLEAR     69  68  96 CALM      29.87R
ST CHARLES     CLEAR     73  72  96 N3        29.87R

$$
MOZ072>076-082>087-097>100-106>115-300600-
...SOUTH CENTRAL AND SOUTHEAST MISSOURI...

CITY           SKY/WX    TMP DP  RH WIND       PRES   REMARKS
CAPE GIRARDEAU CLEAR     72  68  87 CALM      29.88S
FARMINGTON     CLEAR     70  66  88 CALM      29.95S
POPLAR BLUFF   CLEAR     74  68  81 CALM      29.89S
WEST PLAINS    CLEAR     68  63  84 SW3       29.97S

$$



USA.gov is the U.S. government's official web portal to all federal, state and local government web resources and services.